Regional Weather Roundup
Issued by NWS

Home | Current Version | Previous Version | Graphics & Text | Print | Product List | Glossary On
Versions: 1 2 3 4 5 6 7 8 9 10 11 12 13 14 15 16 17 18 19 20 21 22 23 24 25 26 27 28 29 30 31 32 33 34 35 36 37 38 39 40 41 42 43 44 45 46 47 48 49 50
337
ASUS43 KLMK 261310
RWRKY
KENTUCKY REGIONAL WEATHER ROUNDUP
NATIONAL WEATHER SERVICE LOUISVILLE KY
900 AM EDT WED JUL 26 2017

NOTE "FAIR" INDICATES FEW OR NO CLOUDS BELOW 12,000 FEET
WITH NO SIGNIFICANT WEATHER AND/OR OBSTRUCTIONS TO VISIBILITY.

KYZ001>023-026-027-061>063-070>075-261400-
WESTERN AND SOUTH CENTRAL KENTUCKY

CITY           SKY/WX    TMP DP  RH WIND       PRES   REMARKS
PADUCAH        SUNNY     80  75  84 CALM      30.07S
HENDERSON      SUNNY     75  70  84 E5        30.10S
OWENSBORO      MOSUNNY   76  68  76 SE6       30.10S
HOPKINSVILLE   SUNNY     79  74  84 CALM      30.10R
BOWLING GREEN  SUNNY     77  71  82 SE3       30.11S
GLASGOW        SUNNY     77  67  72 CALM      30.13R
$$

KYZ024-025-028>034-038-045-046-053-261400-
NORTH CENTRAL KENTUCKY

CITY           SKY/WX    TMP DP  RH WIND       PRES   REMARKS
LOUISVILLE/SDF MOSUNNY   72  63  73 E6        30.14R
LOUISVILLE/LOU PTSUNNY   72  65  78 VRB6      30.15R
FORT KNOX      PTSUNNY   69  63  81 E7        30.13S
$$

KYZ035>037-039>044-047>052-055>060-089>105-261400-
NORTHEAST KENTUCKY

CITY           SKY/WX    TMP DP  RH WIND       PRES   REMARKS
LEXINGTON      SUNNY     70  61  73 SE6       30.17R
COVINGTON      MOSUNNY   69  63  81 VRB5      30.17R
FRANKFORT      MOSUNNY   69  60  73 E3        30.15R
$$

KYZ054-064>069-076>088-106>120-261400-
SOUTHEAST KENTUCKY

CITY           SKY/WX    TMP DP  RH WIND       PRES   REMARKS
JACKSON        SUNNY     67  62  84 CALM      30.18S
LONDON         MOSUNNY   70  64  81 E3        30.17S
SOMERSET       PTSUNNY   70  63  78 CALM      30.17S
MIDDLESBORO    CLOUDY    66  66 100 CALM      30.19F FOG
MONTICELLO     PTSUNNY   72  69  90 NW9       30.17R
$$





USA.gov is the U.S. government's official web portal to all federal, state and local government web resources and services.